AirNav   Bose A20 Aviation Headset
 
 1563 users online  

H75 Hernando Village Airpark, Inc
Hernando, Mississippi, USA

GOING TO HERNANDO?


FAA INFORMATION EFFECTIVE 11 OCTOBER 2018

Location

FAA Identifier: H75
Lat/Long: 34-47-53.3560N / 090-02-13.3290W
34-47.889267N / 090-02.222150W
34.7981544 / -90.0370358
(estimated)
Elevation: 242 ft. / 74 m (estimated)
Variation: 02E (1985)
From city: 2 miles SW of HERNANDO, MS
Time zone: UTC -5 (UTC -6 during Standard Time)
Zip code: 38632

Airport Operations

Airport use: Open to the public
Activation date: 11/1990
Control tower: no
ARTCC: MEMPHIS CENTER
FSS: GREENWOOD FLIGHT SERVICE STATION
NOTAMs facility: GWO (NOTAM-D service available)
Attendance: DAYLIGHT HOURS
Wind indicator: yes
Segmented circle: no

Airport Communications

CTAF/UNICOM: 122.8
WX ASOS at MEM (15 nm N): 127.75 (901-332-3679)
WX AWOS-3 at OLV (16 nm NE): 119.925 (662-893-5906)
WX AWOS-3 at UTA (17 nm SW): 118.075 (662-363-1652)

Nearby radio navigation aids

VOR radial/distance  VOR name  Freq  Var
MEMr191/13.3MEMPHIS VORTAC117.5001E
HLIr271/26.7HOLLY SPRINGS VORTAC112.4003E
UJMr066/34.2MARVELL VOR/DME109.6001E
GQEr143/39.4GILMORE VOR/DME113.0004E

Airport Services

Parking: tiedowns

Runway Information

Runway 14/32

Dimensions: 3340 x 65 ft. / 1018 x 20 m
Surface: turf, in fair condition
Weight bearing capacity: 
Single wheel: 12.0
Runway edge lights: low intensity
RUNWAY 14  RUNWAY 32
Traffic pattern: leftleft
Obstructions: 92 ft. trees, 1450 ft. from runway, 300 ft. right of centerline, 15:1 slope to clear177 ft. tower, lighted, 2850 ft. from runway, 120 ft. left of centerline, 16:1 slope to clear

Airport Ownership and Management from official FAA records

Ownership: Privately-owned
Owner: HERNANDO VILLAGE AIRPARK INC
2805 GREEN PORT DRIVE
HERNANDO, MS 38632
Phone 662-429-8951
Manager: PAUL E. CASSEL, JR.
2073 GREENHILL DRIVE
HERNANDO, MS 38632
Phone 901-359-6912

Airport Operational Statistics

Aircraft based on the field: 12
Single engine airplanes: 11
Multi engine airplanes: 1
    
Aircraft operations: avg 57/week *
71% local general aviation
27% transient general aviation
2% military
* for 12-month period ending 07 December 2017

Additional Remarks

FOR CD CTC MEM APCH AT 901-842-8457.

Instrument Procedures

There are no published instrument procedures at H75.

Some nearby airports with instrument procedures:

KMEM - Memphis International Airport (15 nm N)
KOLV - Olive Branch Airport (16 nm NE)
KUTA - Tunica Municipal Airport (17 nm SW)
KAWM - West Memphis Municipal Airport (22 nm NW)
M01 - General Dewitt Spain Airport (24 nm N)
 
Loc | Ops | Rwys | IFR | FBO | Links
Com | Nav | Svcs | Stats | Notes


 
Area around H75 (Hernando Village Airpark, Inc)
 
Road maps at: MapQuest Bing Google
 
Aerial photo
WARNING: Photo may not be current or correct
Aerial photo of H75 (Hernando Village Airpark, Inc)
Taken in August 2003

Do you have a better or more recent aerial photo of Hernando Village Airpark, Inc that you would like to share? If so, please send us your photo.

 
Sectional chart

 
Airport distance calculator
Flying to Hernando Village Airpark, Inc? Find the distance to fly.

From to H75

Sunrise and sunset
Times for 16-Oct-2018
 Local
(UTC-5)
 Zulu
(UTC)
Morning civil twilight06:4211:42
Sunrise07:0812:08
Sunset18:2423:24
Evening civil twilight18:4923:49

Current date and time
Zulu (UTC)  16-Oct-2018 18:58:16
Local (UTC-5)  16-Oct-2018 13:58:16
 
METAR
KMEM 
16nm N 
161854Z 34006KT 9SM -RA SCT065 OVC110 10/08 A3024 RMK AO2 SLP239 P0003 T01000083
KOLV 
17nm NE 
161750Z 01006KT 8SM -RA SCT013 BKN070 OVC110 08/08 A3025
KUTA 
17nm SW 
161855Z AUTO 01007KT 7SM -RA 08/08 A3024 RMK AO2 P0004 TSNO
KAWM 
22nm NW 
161853Z AUTO 36006KT 6SM -RA BR OVC110 10/08 A3024 RMK AO2 SLP241 P0003 T01000083 $
KPMU 
27nm S 
161835Z AUTO 00000KT 8SM SCT008 BKN013 11/10 A3024 RMK AO2
TAF
KMEM 
16nm N 
161720Z 1618/1724 35006KT P6SM -RA BKN050 OVC120 FM170000 02004KT P6SM VCSH SCT050 OVC120 FM171400 04005KT P6SM BKN100 FM171800 04007KT P6SM SCT200
NOTAMs
Click for the latest NOTAMs
NOTAMs are issued by the DoD/FAA and will open in a separate window not controlled by AirNav.

 

 
 

Would you like to see your business listed on this page?

 If your business provides an interesting product or service to pilots, flight crews, aircraft, or users of the Hernando Village Airpark, Inc, you should consider listing it here.  To start the listing process, click on the button below
 
Add a business
 

Other Pages about Hernando Village Airpark, Inc

Update a link
 
Copyright © AirNav, LLC. All rights reserved. Privacy Policy  Contact